Location: Buffign�court
(47.8126°N, 6.0176°E)
Time: 20:04:58
(UTC+00:00)

Cosmos 1980 - Pass Details

Date: 16 June 2021
Orbit: 839 x 847 km, 71.0° (Epoch: 01 August)

Event Time Altitude Azimuth Distance (km) Brightness Sun altitude
Exits shadow 22:50:27 31° 174° (S) 1,436 4.3 -18.0°
Maximum altitude 22:52:59 57° 111° (ESE) 996 3.9 -18.1°
Drops below altitude 10° 22:58:33 10° 34° (NE) 2,480 6.8 -18.3°
Sets 23:01:02 0° 31° (NNE) 3,420 7.7 -18.4°
